968  
ASUS43 KLSX 220057  
RWRMO  
 
WEATHER SUMMARY FOR MISSOURI  
NATIONAL WEATHER SERVICE SPRINGFIELD MO  
800 PM CDT SAT OCT 21 2017  
 
NOTE: "FAIR" INDICATES FEW OR NO CLOUDS BELOW 12,000 FEET WITH NO  
SIGNIFICANT WEATHER AND/OR S TO VISIBILITY
.  
CURRENT SKY AND/OR WEATHER CONDITIONS ARE NOT AVAILABLE FOR  
CHILLICOTHE AND FARMINGTON.  
 
MOZ001>031-035>038-043-044-053-054-220200-   
..NORTHERN AND WESTERN MISSOURI
 
 
 
CITY SKY/WX TMP DP RH WIND PRES REMARKS
 
KANSAS CTY INT TSTM 60 60 100 W10 29.85S VSB 1  
LEE'S SUMMIT CLOUDY 74 64 71 S9 29.82F  
ST JOSEPH LGT RAIN 60 58 92 NW7G16 29.87R  
CHILLICOTHE N/A 74 64 71 S8 29.83S  
 

 
MOZ066>068-077>081-088>096-101>105-220200-   
..SOUTHWEST MISSOURI
 
 
 
CITY SKY/WX TMP DP RH WIND PRES REMARKS
 
SPRINGFIELD CLOUDY 72 65 78 S16 29.91S  
JOPLIN CLOUDY 75 63 66 S15 29.84F  
BRANSON MOCLDY 68 64 88 SE9 29.95S  
 

 
MOZ032>034-039>042-045>050-055>058-069>072-220200-   
..CENTRAL MISSOURI
 
 
 
CITY SKY/WX TMP DP RH WIND PRES REMARKS
 
COLUMBIA NOT AVBL  
JEFFERSON CITY CLOUDY 75 62 64 S13G21 29.91R  
ROLLA PTCLDY 70 64 81 S9 29.95F  
SEDALIA CLOUDY 74 65 73 SE14 29.88S  
WARRENSBURG CLOUDY 72 61 68 SE9 29.84S  
 

 
MOZ051-052-059>065-220200-   
..EAST CENTRAL MISSOURI
 
 
 
CITY SKY/WX TMP DP RH WIND PRES REMARKS
 
ST LOUIS INTL MOCLDY 76 60 57 SE14 29.97F  
 

 
MOZ072>076-082>087-097>100-106>115-220200-   
..SOUTH CENTRAL AND SOUTHEAST MISSOURI
 
 
 
CITY SKY/WX TMP DP RH WIND PRES REMARKS
 
CAPE GIRARDEAU CLEAR 72 59 63 SE10 30.05R  
POPLAR BLUFF CLOUDY 74 60 61 SE12 30.02S  
WEST PLAINS MOCLDY 72 64 76 S9 30.00F  
 

 
 
CLICK HERE TO GO TO PREVIOUS BULLETINS.

The Nexlab MO Page Main Text Page